Hourly Weather Roundup
Issued by NWS Central Illinois

Home | Current Version | Previous Version | Text Only | Print | Product List | Glossary On
Versions: 1 2 3 4 5 6 7 8 9 10 11 12 13 14 15 16 17 18 19 20 21 22 23 24 25 26 27 28 29 30 31 32 33 34 35 36 37 38 39 40 41 42 43 44 45 46 47 48 49 50
000
NZUS43 KILX 041610
HWRILX

AREA WEATHER ROUNDUP
NATIONAL WEATHER SERVICE, LINCOLN IL
1000 AM CST WED MAR 04 2015


CITY           SKY/WX    TMP DP  RH WIND       PRES   REMARKS
BLOOMINGTON    PTSUNNY   16   7  67 NW18      30.16R WCI   0
CHAMPAIGN      CLOUDY    16   9  74 NW16      30.13R WCI   1
DECATUR        CLOUDY    17   7  64 NW14      30.17R WCI   3
EFFINGHAM      CLOUDY    21  11  66 NW15      30.16R WCI   8
FLORA          NOT AVBL
GALESBURG      NOT AVBL
JACKSONVILLE   NOT AVBL
LACON          NOT AVBL
LAWRENCEVILLE  CLOUDY    29  24  82 N15       30.11R WCI  18
LITCHFIELD     CLOUDY    17   7  65 N17       30.19R WCI   1
$$


CITY           SKY/WX    TMP DP  RH WIND       PRES   REMARKS
LINCOLN        CLOUDY    20   8  61 NW8       30.23R WCI  10
MACOMB         CLOUDY    15   7  71 NW15      30.27R WCI   0
MATTOON        CLOUDY    18  11  74 NW17      30.14R WCI   3
MT CARMEL AP   CLOUDY    32  27  80 NW18      30.09R WCI  20
OLNEY-NOBLE AP NOT AVBL
PARIS          NOT AVBL
PEORIA         CLOUDY    16   0  49 NW12G22   30.21R WCI   3
PONTIAC        NOT AVBL
RANTOUL        CLOUDY    17  10  73 NW15G22   30.13R WCI   2
ROBINSON       CLOUDY    25  19  77 NW15      30.12R WCI  13
SPRINGFIELD    CLOUDY    17   5  59 NW16      30.21R WCI   2
TAYLORVILLE    NOT AVBL
$$

...REGIONAL REPORTS...


CITY           SKY/WX    TMP DP  RH WIND       PRES   REMARKS
CHICAGO O`HARE CLOUDY    18   8  65 NW13      30.10R WCI   5
KANKAKEE       NOT AVBL
MOLINE         MOSUNNY   13   1  59 NW16      30.24R WCI  -3
MOUNT VERNON   CLOUDY    27  16  63 N8        30.15R WCI  18
PITTSFIELD     CLOUDY    19   7  58 N14       30.24R WCI   6
QUINCY         CLOUDY    17   5  59 NW15      30.25R WCI   2
ROCKFORD       PTSUNNY   13   2  61 NW15      30.17R WCI  -3
$$


CITY           SKY/WX    TMP DP  RH WIND       PRES   REMARKS
BURLINGTON     CLOUDY    15   4  61 NW13      30.25R WCI   1
CEDAR RAPIDS   SUNNY      9   0  67 NW20      30.24R WCI -10
DES MOINES     PTSUNNY   17   0  47 NW12      30.30R WCI   4
KIRKSVILLE     NOT AVBL
OTTUMWA        SUNNY     16   0  49 NW23      30.29R WCI  -2
ST LOUIS       LGT SNOW  21  11  65 N14       30.23R WCI   8
$$


CITY           SKY/WX    TMP DP  RH WIND       PRES   REMARKS
TERRE HAUTE    CLOUDY    23  17  78 NW15      30.11R WCI  10
EVANSVILLE     LGT RAIN  35  31  85 N9        30.08R FOG     WCI  28
INDIANAPOLIS   CLOUDY    30  25  81 NW13      30.02R WCI  20
LAFAYETTE      CLOUDY    21  15  78 NW14      30.08R WCI   8
MADISON        MOSUNNY   13  -3  49 NW16G23   30.13R WCI  -3
MILWAUKEE      MOSUNNY   15  -2  46 NW16      30.09R WCI  -1
$$




USA.gov is the U.S. government's official web portal to all federal, state and local government web resources and services.